Weather History for Lafayette, LA

Change the Weather History Date:

Sunday, February 5, 2012

  Actual Average Record
Temperature  
Mean Temperature 56 °F 54 °F  
Max Temperature 62 °F 64 °F 80 °F (1921)
Min Temperature 49 °F 45 °F 16 °F (1996)
Degree Days  
Heating Degree Days 9 12  
Month to date heating degree days 9 60  
Since 1 July heating degree days 799 1016  
Growing Degree Days 4 (Base 50)    
Moisture  
Dew Point 50 °F    
Average Humidity 82    
Maximum Humidity 93    
Minimum Humidity 71    
Precipitation  
Precipitation 0.03 in 0.17 in 4.91 in (1955)
Month to date precipitation 0.81 0.87  
Year to date precipitation 7.51 6.54  
Snow  
Snow 0.00 in 0.00 in T in (1988)
Month to date snowfall 0.0 0.0  
Since 1 July snowfall 0.0 0.0  
Snow Depth 0.00 in    
Sea Level Pressure  
Sea Level Pressure 30.18 in    
Wind  
Wind Speed 12 mph (North)    
Max Wind Speed 18 mph    
Max Gust Speed 23 mph    
Visibility 9 miles    
Events Rain    
T = Trace of Precipitation, MM = Missing Value Source: NWS Daily Summary

Daily Weather History Graph

Daily Weather History Graph

Search for Another Location

Airport:

Trip Planner

Search our weather history database for the weather conditions in past years. The results will help you decide how hot, cold, wet, or windy it might be!

Date:

Astronomy

Feb. 05, 2012 Rise Set
Actual Time 6:56 AM CST 5:47 PM CST
Civil Twilight 6:31 AM CST 6:12 PM CST
Nautical Twilight 6:02 AM CST 6:41 PM CST
Astronomical Twilight 5:34 AM CST 7:09 PM CST
Moon 3:51 PM CST (2/5) 5:01 AM CST (2/5)
Length of Visible Light 11h 41m
Length of Day
10h 51m
Waxing Gibbous, 95% of the Moon is Illuminated
Feb 5
Waxing Gibbous
Feb 7
Full
Feb 14
Last Quarter
Feb 21
New
Feb 29
First Quarter

Hourly Weather History & Observations

Time (CST) Temp. Dew Point Humidity Pressure Visibility Wind Dir Wind Speed Gust Speed Precip Events Conditions
12:27 AM 60.8 °F 59.0 °F 94% 30.13 in 7.0 mi North 5.8 mph - N/A   Overcast
12:49 AM 60.8 °F 59.0 °F 94% 30.12 in 2.5 mi North 5.8 mph - N/A   Overcast
12:53 AM 60.1 °F 57.9 °F 93% 30.12 in 2.5 mi North 6.9 mph - N/A   Overcast
1:03 AM 60.8 °F 57.2 °F 88% 30.13 in 3.0 mi NNW 5.8 mph - N/A   Overcast
1:13 AM 60.8 °F 59.0 °F 94% 30.13 in 7.0 mi NNW 6.9 mph - N/A   Overcast
1:53 AM 61.0 °F 57.9 °F 90% 30.13 in 10.0 mi NNW 6.9 mph - N/A   Overcast
2:53 AM 60.1 °F 57.0 °F 90% 30.12 in 10.0 mi North 11.5 mph - N/A   Overcast
3:25 AM 59.0 °F 55.4 °F 88% 30.12 in 10.0 mi North 9.2 mph - N/A   Overcast
3:53 AM 57.9 °F 55.0 °F 90% 30.12 in 10.0 mi NNW 9.2 mph - N/A   Overcast
4:53 AM 55.9 °F 52.0 °F 87% 30.12 in 10.0 mi North 11.5 mph - N/A   Overcast
5:53 AM 55.0 °F 51.1 °F 86% 30.15 in 10.0 mi North 12.7 mph - N/A   Overcast
6:53 AM 54.0 °F 50.0 °F 86% 30.17 in 10.0 mi North 15.0 mph - N/A   Overcast
7:53 AM 54.0 °F 50.0 °F 86% 30.20 in 10.0 mi North 11.5 mph - N/A   Overcast
8:00 AM 53.6 °F 50.0 °F 88% 30.20 in 10.0 mi North 11.5 mph - N/A   Overcast
8:53 AM 53.1 °F 46.9 °F 80% 30.21 in 10.0 mi North 10.4 mph - N/A   Overcast
9:02 AM 53.6 °F 46.4 °F 77% 30.21 in 10.0 mi North 12.7 mph - N/A   Overcast
9:53 AM 55.0 °F 48.0 °F 77% 30.21 in 10.0 mi NNE 13.8 mph - N/A   Overcast
10:53 AM 55.0 °F 46.9 °F 74% 30.24 in 10.0 mi NNE 11.5 mph - N/A   Overcast
11:53 AM 55.9 °F 48.0 °F 75% 30.23 in 10.0 mi North 11.5 mph - N/A   Overcast
12:00 PM 55.4 °F 46.4 °F 72% 30.22 in 10.0 mi North 13.8 mph - N/A   Overcast
12:53 PM 55.0 °F 46.9 °F 74% 30.19 in 10.0 mi North 15.0 mph - N/A   Scattered Clouds
1:16 PM 55.4 °F 46.4 °F 72% 30.20 in 10.0 mi North 12.7 mph - N/A   Mostly Cloudy
1:39 PM 55.4 °F 46.4 °F 72% 30.18 in 10.0 mi North 13.8 mph - N/A   Scattered Clouds
1:53 PM 55.0 °F 46.0 °F 72% 30.18 in 10.0 mi North 15.0 mph - N/A   Scattered Clouds
2:53 PM 54.0 °F 46.0 °F 75% 30.17 in 10.0 mi North 13.8 mph - N/A   Clear
3:53 PM 54.0 °F 46.0 °F 75% 30.17 in 10.0 mi North 13.8 mph - N/A   Clear
4:53 PM 53.1 °F 45.0 °F 74% 30.18 in 10.0 mi North 16.1 mph - N/A   Clear
5:53 PM 52.0 °F 44.1 °F 74% 30.20 in 10.0 mi North 12.7 mph - N/A   Mostly Cloudy
6:53 PM 51.1 °F 44.1 °F 77% 30.21 in 10.0 mi North 13.8 mph 21.9 mph N/A   Overcast
7:53 PM 51.1 °F 44.1 °F 77% 30.22 in 10.0 mi NNE 11.5 mph - 0.00 in Rain Light Rain
8:53 PM 48.9 °F 46.0 °F 90% 30.24 in 10.0 mi NNE 9.2 mph - 0.03 in Rain Light Rain
9:53 PM 50.0 °F 46.0 °F 86% 30.25 in 10.0 mi North 9.2 mph - 0.00 in   Overcast
10:53 PM 48.9 °F 45.0 °F 86% 30.23 in 10.0 mi North 9.2 mph - N/A   Scattered Clouds
11:53 PM 48.9 °F 44.1 °F 83% 30.23 in 10.0 mi North 9.2 mph - 0.00 in   Overcast